Louisa, VA

11:13 PM EDT on July 30, 2016 (GMT -0400)
Louisa County-Freeman

Weather History for KLKU - December, 2012

Change the Weather History Date:

Tuesday, December 4, 2012

  Actual Average (KCHO) Record (KCHO)
Temperature  
Mean Temperature 60 °F 41 °F  
Max Temperature 71 °F 50 °F 73 °F (2012)
Min Temperature 48 °F 31 °F 11 °F (2002)
Degree Days  
Heating Degree Days 6 24  
Month to date heating degree days 95  
Since 1 July heating degree days 986  
Cooling Degree Days 0 0  
Month to date cooling degree days 0  
Year to date cooling degree days 1035  
Growing Degree Days 10 (Base 50)    
Moisture  
Dew Point 50 °F    
Average Humidity 70    
Maximum Humidity 100    
Minimum Humidity 50    
Precipitation  
Precipitation 0.00 in 0.12 in 3.46 in (1948)
Month to date precipitation 0.50  
Year to date precipitation 40.06  
Sea Level Pressure  
Sea Level Pressure 30.16 in    
Wind  
Wind Speed 2 mph (SSW)    
Max Wind Speed 9 mph    
Max Gust Speed -    
Visibility 8 miles    
Events      
T = Trace of Precipitation, MM = Missing Value Source: NWS Daily Summary

Daily Weather History Graph

Daily Weather History Graph

Search for Another Location

Airport or City:

Trip Planner

Search our weather history database for the weather conditions in past years. The results will help you decide how hot, cold, wet, or windy it might be!

Date:

Astronomy

Dec. 04, 2012 Rise Set
Actual Time 7:12 AM EST 4:52 PM EST
Civil Twilight 6:43 AM EST 5:21 PM EST
Nautical Twilight 6:10 AM EST 5:54 PM EST
Astronomical Twilight 5:38 AM EST 6:25 PM EST
Moon 10:33 PM EST (12/4) 11:08 AM EST (12/4)
Length of Visible Light 10h 38m
Length of Day
9h 39m
Waning Gibbous, 69% of the Moon is Illuminated
Dec 4
Waning Gibbous
Dec 6
Last Quarter
Dec 13
New
Dec 20
First Quarter
Dec 28
Full

Hourly Weather History & Observations

Time (EST) Temp. Dew Point Humidity Pressure Visibility Wind Dir Wind Speed Gust Speed Precip Events Conditions
12:15 AM 53.6 °F 50.0 °F 88% 30.23 in 10.0 mi Calm Calm - N/A   Mostly Cloudy
12:35 AM 53.6 °F 50.0 °F 88% 30.22 in 10.0 mi Calm Calm - N/A   Overcast
1:15 AM 53.6 °F 51.8 °F 94% 30.22 in 10.0 mi Calm Calm - N/A   Scattered Clouds
1:35 AM 51.8 °F 48.2 °F 88% 30.22 in 4.0 mi Calm Calm - N/A   Scattered Clouds
1:55 AM 51.8 °F 48.2 °F 88% 30.22 in 4.0 mi Calm Calm - N/A   Mostly Cloudy
2:15 AM 51.8 °F 48.2 °F 88% 30.22 in 5.0 mi Calm Calm - N/A   Scattered Clouds
2:35 AM 51.8 °F 50.0 °F 94% 30.22 in 7.0 mi South 3.5 mph - N/A   Clear
2:55 AM 53.6 °F 50.0 °F 88% 30.22 in 7.0 mi Calm Calm - N/A   Clear
3:15 AM 51.8 °F 48.2 °F 88% 30.22 in 4.0 mi Calm Calm - N/A   Clear
3:55 AM 48.2 °F 46.4 °F 93% 30.21 in 0.2 mi Calm Calm - N/A   Unknown
4:15 AM 48.2 °F 46.4 °F 93% 30.21 in 0.5 mi Calm Calm - N/A   Overcast
4:35 AM 48.2 °F 46.4 °F 93% 30.21 in 0.5 mi Calm Calm - N/A   Overcast
4:55 AM 48.2 °F 46.4 °F 93% 30.21 in 0.5 mi Calm Calm - N/A   Mostly Cloudy
5:15 AM 48.2 °F 46.4 °F 93% 30.21 in 0.2 mi Calm Calm - N/A   Unknown
5:35 AM 48.2 °F 46.4 °F 93% 30.21 in 0.2 mi Calm Calm - N/A   Mostly Cloudy
5:55 AM 48.2 °F 46.4 °F 93% 30.22 in 0.8 mi Calm Calm - N/A   Overcast
6:15 AM 48.2 °F 46.4 °F 93% 30.22 in 4.0 mi Calm Calm - N/A   Overcast
6:35 AM 48.2 °F 48.2 °F 100% 30.22 in 4.0 mi Calm Calm - N/A   Mostly Cloudy
6:55 AM 48.2 °F 48.2 °F 100% 30.22 in 4.0 mi Calm Calm - N/A   Scattered Clouds
7:15 AM 51.8 °F 48.2 °F 88% 30.22 in 5.0 mi Calm Calm - N/A   Scattered Clouds
7:35 AM 51.8 °F 48.2 °F 88% 30.22 in 5.0 mi SSW 3.5 mph - N/A   Clear
7:55 AM 51.8 °F 50.0 °F 94% 30.23 in 7.0 mi Calm Calm - N/A   Clear
8:15 AM 53.6 °F 50.0 °F 88% 30.23 in 7.0 mi Calm Calm - N/A   Scattered Clouds
8:35 AM 53.6 °F 50.0 °F 88% 30.24 in 10.0 mi Calm Calm - N/A   Scattered Clouds
8:55 AM 55.4 °F 50.0 °F 82% 30.24 in 10.0 mi SSW 3.5 mph - N/A   Clear
9:15 AM 55.4 °F 51.8 °F 88% 30.24 in 10.0 mi SSW 3.5 mph - N/A   Clear
9:35 AM 59.0 °F 51.8 °F 77% 30.24 in 10.0 mi SSW 6.9 mph - N/A   Clear
9:55 AM 59.0 °F 51.8 °F 77% 30.24 in 10.0 mi SSW 5.8 mph - N/A   Clear
10:15 AM 60.8 °F 51.8 °F 72% 30.24 in 10.0 mi SW 3.5 mph - N/A   Clear
10:35 AM 62.6 °F 51.8 °F 68% 30.23 in 10.0 mi SW 5.8 mph - N/A   Clear
10:55 AM 66.2 °F 51.8 °F 60% 30.22 in 10.0 mi SSW 6.9 mph - N/A   Clear
11:15 AM 66.2 °F 51.8 °F 60% 30.21 in 10.0 mi SW 6.9 mph - N/A   Clear
11:35 AM 69.8 °F 51.8 °F 53% 30.20 in 10.0 mi SW 6.9 mph - N/A   Clear
11:55 AM 69.8 °F 51.8 °F 53% 30.19 in 10.0 mi SW 6.9 mph - N/A   Clear
12:15 PM 71.6 °F 51.8 °F 50% 30.18 in 10.0 mi SW 6.9 mph - N/A   Clear
12:35 PM 69.8 °F 51.8 °F 53% 30.17 in 10.0 mi SW 9.2 mph - N/A   Clear
12:55 PM 71.6 °F 51.8 °F 50% 30.16 in 10.0 mi SW 4.6 mph - N/A   Clear
1:15 PM 71.6 °F 51.8 °F 50% 30.14 in 10.0 mi SW 4.6 mph - N/A   Clear
1:35 PM 71.6 °F 51.8 °F 50% 30.14 in 10.0 mi SSW 6.9 mph - N/A   Clear
1:55 PM 71.6 °F 51.8 °F 50% 30.13 in 10.0 mi SW 6.9 mph - N/A   Clear
2:15 PM 71.6 °F 51.8 °F 50% 30.13 in 10.0 mi SW 5.8 mph - N/A   Clear
2:35 PM 71.6 °F 51.8 °F 50% 30.12 in 10.0 mi SSW 4.6 mph - N/A   Clear
2:55 PM 71.6 °F 51.8 °F 50% 30.11 in 10.0 mi SSW 4.6 mph - N/A   Clear
3:15 PM 71.6 °F 51.8 °F 50% 30.12 in 10.0 mi South 5.8 mph - N/A   Clear
3:35 PM 69.8 °F 51.8 °F 53% 30.12 in 10.0 mi South 5.8 mph - N/A   Clear
3:55 PM 69.8 °F 51.8 °F 53% 30.12 in 10.0 mi South 3.5 mph - N/A   Clear
4:15 PM 69.8 °F 51.8 °F 53% 30.12 in 10.0 mi SSW 8.1 mph - N/A   Clear
4:35 PM 68.0 °F 51.8 °F 56% 30.12 in 10.0 mi South 3.5 mph - N/A   Clear
4:55 PM 68.0 °F 50.0 °F 52% 30.11 in 10.0 mi SSW 4.6 mph - N/A   Clear
5:15 PM 66.2 °F 50.0 °F 56% 30.11 in 10.0 mi South 3.5 mph - N/A   Clear
5:35 PM 64.4 °F 50.0 °F 59% 30.12 in 10.0 mi Calm Calm - N/A   Clear
5:55 PM 64.4 °F 50.0 °F 59% 30.11 in 10.0 mi South 3.5 mph - N/A   Clear
6:15 PM 64.4 °F 50.0 °F 59% 30.11 in 10.0 mi Calm Calm - N/A   Clear
6:35 PM 62.6 °F 48.2 °F 59% 30.11 in 10.0 mi Calm Calm - N/A   Clear
6:55 PM 62.6 °F 48.2 °F 59% 30.11 in 10.0 mi South 4.6 mph - N/A   Clear
7:15 PM 64.4 °F 48.2 °F 56% 30.11 in 10.0 mi South 4.6 mph - N/A   Mostly Cloudy
7:35 PM 62.6 °F 48.2 °F 59% 30.10 in 10.0 mi SSW 3.5 mph - N/A   Scattered Clouds
7:55 PM 62.6 °F 48.2 °F 59% 30.11 in 10.0 mi SSW 4.6 mph - N/A   Clear
8:15 PM 62.6 °F 48.2 °F 59% 30.10 in 10.0 mi South 4.6 mph - N/A   Clear
8:35 PM 62.6 °F 48.2 °F 59% 30.10 in 10.0 mi SSW 4.6 mph - N/A   Clear
8:55 PM 62.6 °F 48.2 °F 59% 30.10 in 10.0 mi SSW 4.6 mph - N/A   Clear
9:15 PM 62.6 °F 48.2 °F 59% 30.09 in 10.0 mi South 3.5 mph - N/A   Clear
9:35 PM 62.6 °F 48.2 °F 59% 30.09 in 10.0 mi SSW 6.9 mph - N/A   Mostly Cloudy
9:55 PM 62.6 °F 48.2 °F 59% 30.09 in 10.0 mi SSW 5.8 mph - N/A   Overcast
10:15 PM 62.6 °F 48.2 °F 59% 30.08 in 10.0 mi SSW 5.8 mph - N/A   Overcast
10:35 PM 62.6 °F 48.2 °F 59% 30.08 in 10.0 mi SSW 6.9 mph - N/A   Overcast
10:55 PM 62.6 °F 48.2 °F 59% 30.08 in 10.0 mi SSW 6.9 mph - N/A   Mostly Cloudy
11:15 PM 62.6 °F 48.2 °F 59% 30.07 in 10.0 mi SW 6.9 mph - N/A   Mostly Cloudy
11:35 PM 62.6 °F 48.2 °F 59% 30.06 in 10.0 mi SW 6.9 mph - N/A   Overcast
11:55 PM 62.6 °F 48.2 °F 59% 30.06 in 10.0 mi SW 8.1 mph - N/A   Overcast